Погода в Ольгино

Россия / Ставропольский край     44°19′45″N   44°24′22″E
темп.,
°C
ветер,
м/с
пор.,
м/с
влажн.,
%
обл.,
%
осадки,
мм/ч
давл.,
гПа
погр.,
м
18 апреля, вс
вс1800:00+11с2381100 0.0 1022183
03:00+11всв2381100 0.0 1021134
06:00+10всв3591100 0.0 1020183
09:00+14всв2274100 0.0 1019803
12:00+15в4569100 0.3 1017707
15:00+19вюв455555 0.3 10161271
18:00+17всв35655 0.0 1016112
21:00+12всв3990100 0.1 1017178
19 апреля, пн
пн1900:00+11вюв367898 0.0 1017111
03:00+12юв2373100 0.0 101669
06:00+12в1275100 0.0 101723
09:00+16вюв4561100 0.1 1016281
12:00+16св347071 0.1 1017223
15:00+21вюв564795 0.1 10151339
18:00+18в485985 0.0 1013164
21:00+14вюв3971100 0.0 1015189
20 апреля, вт
вт2000:00+13всв4876100 0.0 1015182
03:00+11в3107699 0.0 1013249
06:00+11вюв51173100 0.0 1011303
09:00+15юв61065100 0.0 1009401
12:00+21вюв71051100 0.0 1006620
15:00+24в5645100 0.0 1005757
18:00+19вюв1367100 0.1 100579
21:00+15юз1177100 0.6 100811
21 апреля, ср
ср2100:00+14сз2385100 0.1 101158
03:00+14ссз61375100 0.1 1013690
06:00+13сз41075100 0.3 1016698
09:00+12ссз4880100 0.4 1018797
12:00+11ссз5680100 0.1 1020638
15:00+10ссз4781100 0.1 1021468
18:00+10з1284100 0.0 1022137
21:00+10зсз2389100 0.4 1023115
22 апреля, чт
чт2200:00+10зсз2489100 0.1 1023118
03:00+10зсз2389100 0.1 102276
06:00+10сз2388100 0.0 102382
09:00+11с2490100 0.0 1023244
12:00+11ссз1288100 0.2 1023168
15:00+11сз2389100 3.4 1023246
18:00+10сз2394100 0.9 1023135
21:00+10зюз3393100 1.1 102373